Weather History for KROA - December, 2014

Change the Weather History Date:

Thursday, December 18, 2014

  Actual Average Record
Temperature  
Mean Temperature 37 °F 38 °F  
Max Temperature 43 °F 47 °F 78 °F (1924)
Min Temperature 31 °F 30 °F 11 °F (1932)
Degree Days  
Heating Degree Days 28 27  
Month to date heating degree days 388 446  
Since 1 July heating degree days 1266 1250  
Cooling Degree Days 0 0  
Month to date cooling degree days 0 0  
Year to date cooling degree days 1128 1208  
Moisture  
Dew Point 21 °F    
Average Humidity 50    
Maximum Humidity 61    
Minimum Humidity 39    
Precipitation  
Precipitation 0.00 in 0.08 in 1.01 in (2009)
Month to date precipitation 1.10 1.80  
Year to date precipitation 37.99 40.11  
Snow  
Snow 0.00 in - - ()
Month to date snowfall T  
Since 1 July snowfall 0.5  
Snow Depth 0.00 in    
Sea Level Pressure  
Sea Level Pressure 30.13 in    
Wind  
Wind Speed 8 mph (WNW)    
Max Wind Speed 24 mph    
Max Gust Speed 31 mph    
Visibility 10 miles    
Events      
T = Trace of Precipitation, MM = Missing Value Source: NWS Daily Summary

Daily Weather History Graph

Daily Weather History Graph

Search for Another Location

Airport or City:

Trip Planner

Search our weather history database for the weather conditions in past years. The results will help you decide how hot, cold, wet, or windy it might be!

Date:

Astronomy

Dec. 18, 2014 Rise Set
Actual Time 7:28 AM EST 5:04 PM EST
Civil Twilight 6:59 AM EST 5:33 PM EST
Nautical Twilight 6:26 AM EST 6:06 PM EST
Astronomical Twilight 5:54 AM EST 6:38 PM EST
Moon 3:44 AM EST (12/18) 2:40 PM EST (12/18)
Length of Visible Light 10h 34m
Length of Day
9h 35m
Waning Crescent, 13% of the Moon is Illuminated
Dec 18
Waning Crescent
Dec 21
New
Dec 28
First Quarter
Jan 4
Full
Jan 13
Last Quarter

Hourly Weather History & Observations

Time (EST) Temp. Windchill Dew Point Humidity Pressure Visibility Wind Dir Wind Speed Gust Speed Precip Events Conditions
12:54 AM 37.9 °F 27.6 °F 23.0 °F 55% 30.10 in 10.0 mi NW 20.7 mph - N/A   Clear
1:54 AM 35.1 °F 28.6 °F 21.9 °F 59% 30.12 in 10.0 mi WNW 8.1 mph - N/A   Clear
2:54 AM 36.0 °F 27.5 °F 21.0 °F 55% 30.14 in 10.0 mi WNW 12.7 mph - N/A   Clear
3:54 AM 35.1 °F 30.1 °F 21.0 °F 57% 30.14 in 10.0 mi WNW 5.8 mph - N/A   Clear
4:54 AM 34.0 °F 27.2 °F 21.0 °F 59% 30.15 in 10.0 mi WNW 8.1 mph - N/A   Clear
5:54 AM 34.0 °F 31.0 °F 19.9 °F 56% 30.18 in 10.0 mi NW 3.5 mph - N/A   Scattered Clouds
6:54 AM 34.0 °F 29.8 °F 19.9 °F 56% 30.18 in 10.0 mi Variable 4.6 mph - N/A   Mostly Cloudy
7:54 AM 33.8 °F 25.3 °F 19.4 °F 56% - 10.0 mi NW 11.5 mph - N/A   Mostly Cloudy
8:54 AM 33.8 °F 27.7 °F 19.4 °F 56% - 10.0 mi NW 6.9 mph - N/A   Mostly Cloudy
9:54 AM 35.6 °F 29.2 °F 19.4 °F 52% 30.20 in 10.0 mi NW 8.1 mph - N/A   Mostly Cloudy
10:54 AM 35.6 °F 29.2 °F 21.2 °F 56% 30.19 in 10.0 mi West 8.1 mph - N/A   Overcast
11:54 AM 37.0 °F 30.4 °F 21.9 °F 54% 30.18 in 10.0 mi West 9.2 mph - N/A   Overcast
12:54 PM 39.0 °F 34.0 °F 21.9 °F 50% 30.13 in 10.0 mi WSW 6.9 mph - N/A   Overcast
1:54 PM 39.9 °F 35.1 °F 21.9 °F 49% 30.12 in 10.0 mi West 6.9 mph - N/A   Overcast
2:54 PM 43.0 °F 38.8 °F 21.9 °F 43% 30.10 in 10.0 mi WSW 6.9 mph - N/A   Scattered Clouds
3:54 PM 42.1 °F 39.2 °F 21.9 °F 45% 30.10 in 10.0 mi SW 4.6 mph - N/A   Mostly Cloudy
4:54 PM 42.1 °F 39.2 °F 21.9 °F 45% 30.10 in 10.0 mi West 4.6 mph - N/A   Overcast
5:54 PM 42.1 °F - 23.0 °F 47% 30.10 in 10.0 mi Calm Calm - N/A   Overcast
6:54 PM 43.0 °F 36.4 °F 21.0 °F 42% 30.12 in 10.0 mi WNW 12.7 mph - N/A   Overcast
7:54 PM 42.1 °F 37.1 °F 19.0 °F 40% 30.12 in 10.0 mi NW 8.1 mph - N/A   Overcast
8:54 PM 41.0 °F 38.0 °F 21.0 °F 45% 30.11 in 10.0 mi WNW 4.6 mph - N/A   Overcast
9:54 PM 41.0 °F 36.4 °F 19.0 °F 41% 30.12 in 10.0 mi West 6.9 mph - N/A   Overcast
10:54 PM 39.9 °F 33.9 °F 17.1 °F 40% 30.13 in 10.0 mi WNW 9.2 mph - N/A   Scattered Clouds
11:54 PM 39.0 °F 34.0 °F 17.1 °F 41% 30.14 in 10.0 mi WNW 6.9 mph - N/A   Overcast